GFSNE_500_temp_000.txt.gz
Temp
-8 -8 -8 -9 -9 -8 -8 -9 -8 -8 -7 -7 -8 -7 -7 -6 -7 -7 -9 -10 -11 -10 -11 -10 -10 -10 -10 -10 -9 -9 -9 -9 -8 -8 -8 -8 -8 -8
-9 -9 -9 -9 -9 -8 -8 -9 -8 -8 -8 -8 -8 -8 -8 -7 -8 -9 -9 -10 -11 -11 -10 -11 -10 -10 -10 -10 -9 -9 -9 -9 -8 -8 -8 -8 -8 -8
-9 -9 -9 -9 -9 -8 -9 -8 -8 -8 -8 -9 -9 -9 -9 -9 -9 -9 -10 -11 -12 -12 -12 -11 -11 -11 -10 -10 -10 -9 -9 -9 -9 -8 -8 -8 -8 -8
-10 -10 -9 -10 -9 -9 -9 -9 -9 -8 -8 -8 -9 -8 -8 -9 -10 -10 -11 -12 -12 -12 -12 -12 -12 -11 -11 -10 -10 -10 -9 -9 -8 -8 -8 -8 -8 -7
-10 -10 -10 -10 -10 -9 -9 -9 -8 -8 -9 -9 -8 -9 -9 -10 -10 -11 -12 -12 -12 -12 -13 -12 -12 -12 -12 -11 -11 -10 -10 -9 -9 -8 -8 -8 -7 -7
-11 -11 -11 -10 -10 -10 -10 -9 -9 -10 -10 -9 -9 -9 -10 -11 -11 -12 -12 -12 -13 -13 -13 -14 -13 -13 -13 -12 -12 -11 -10 -10 -9 -8 -8 -8 -7 -7
-11 -10 -10 -11 -11 -10 -10 -10 -10 -10 -10 -9 -9 -10 -10 -11 -12 -13 -13 -12 -13 -14 -14 -14 -14 -14 -14 -13 -13 -12 -11 -10 -10 -9 -8 -8 -7 -7
-11 -11 -12 -12 -12 -11 -11 -11 -11 -10 -10 -10 -10 -10 -12 -13 -13 -13 -13 -13 -13 -14 -14 -14 -15 -14 -15 -14 -14 -12 -11 -11 -10 -10 -9 -8 -8 -7
-11 -12 -12 -11 -11 -12 -12 -12 -12 -11 -11 -11 -11 -11 -13 -13 -14 -14 -14 -14 -14 -14 -14 -14 -15 -14 -14 -14 -13 -11 -11 -11 -10 -10 -9 -8 -8 -8
-12 -11 -11 -12 -12 -12 -12 -13 -12 -12 -12 -12 -12 -12 -13 -13 -14 -14 -14 -14 -14 -15 -15 -14 -14 -14 -14 -13 -12 -11 -10 -10 -10 -10 -10 -9 -8 -8
-10 -10 -10 -11 -12 -12 -13 -12 -13 -13 -13 -13 -13 -13 -13 -14 -14 -14 -15 -14 -15 -15 -15 -14 -14 -15 -14 -13 -12 -11 -10 -10 -10 -10 -9 -9 -8 -8
-11 -11 -11 -12 -12 -12 -12 -12 -13 -13 -13 -14 -14 -14 -14 -14 -15 -14 -14 -14 -14 -15 -15 -14 -15 -15 -13 -13 -12 -11 -10 -10 -9 -10 -10 -9 -8 -7
-12 -12 -12 -13 -12 -12 -12 -13 -14 -14 -14 -14 -15 -15 -15 -15 -15 -15 -15 -15 -15 -15 -15 -14 -15 -14 -13 -12 -12 -11 -11 -10 -9 -9 -10 -9 -8 -8
-12 -12 -13 -13 -13 -14 -14 -14 -14 -15 -15 -15 -16 -16 -15 -15 -15 -16 -16 -16 -15 -15 -15 -15 -15 -13 -13 -12 -12 -12 -11 -10 -10 -9 -9 -9 -9 -8
-13 -14 -14 -14 -14 -15 -15 -15 -15 -15 -16 -16 -16 -16 -15 -15 -16 -16 -16 -16 -16 -15 -15 -14 -14 -13 -13 -12 -12 -12 -12 -11 -10 -9 -9 -9 -9 -8
-14 -14 -14 -15 -15 -15 -15 -15 -15 -16 -16 -16 -16 -16 -16 -16 -16 -16 -16 -16 -16 -16 -15 -15 -14 -13 -13 -13 -12 -12 -12 -11 -11 -10 -9 -9 -9 -9
-15 -15 -15 -16 -16 -16 -16 -16 -16 -16 -16 -16 -16 -16 -16 -16 -16 -16 -16 -16 -16 -15 -15 -15 -15 -14 -13 -13 -13 -12 -12 -11 -11 -10 -10 -10 -9 -9
-15 -16 -16 -16 -16 -16 -16 -16 -16 -16 -17 -16 -17 -17 -17 -17 -16 -16 -16 -16 -16 -16 -15 -15 -15 -15 -14 -13 -13 -13 -12 -11 -11 -11 -10 -10 -10 -9
-16 -16 -16 -16 -16 -16 -16 -16 -17 -17 -17 -17 -17 -17 -17 -17 -17 -16 -16 -16 -16 -16 -15 -15 -14 -14 -13 -13 -12 -13 -12 -12 -10 -11 -12 -11 -11 -10
-16 -16 -16 -16 -16 -16 -17 -17 -17 -17 -17 -17 -17 -17 -17 -17 -17 -17 -17 -16 -16 -16 -16 -15 -15 -14 -13 -13 -13 -13 -13 -13 -13 -11 -12 -12 -11 -11
-16 -16 -16 -16 -16 -16 -17 -17 -17 -17 -17 -17 -17 -17 -17 -17 -17 -17 -17 -16 -16 -16 -16 -15 -15 -15 -14 -13 -13 -13 -13 -12 -13 -13 -12 -11 -11 -11
-16 -16 -16 -17 -17 -17 -17 -17 -17 -17 -18 -18 -18 -18 -18 -18 -17 -17 -17 -17 -16 -16 -16 -15 -15 -15 -15 -14 -13 -13 -13 -12 -12 -12 -12 -12 -11 -10
-16 -16 -17 -17 -17 -17 -18 -18 -18 -18 -18 -18 -18 -18 -18 -18 -18 -17 -17 -17 -17 -16 -16 -16 -16 -16 -15 -14 -14 -13 -12 -12 -12 -12 -12 -11 -10 -10

GFSNE_500_temp_003.txt.gz
Temp
-8 -8 -8 -8 -8 -8 -8 -9 -8 -8 -8 -8 -7 -7 -7 -6 -6 -6 -7 -6 -7 -8 -9 -10 -11 -11 -10 -9 -10 -9 -9 -9 -9 -9 -9 -9 -9 -9
-9 -8 -8 -8 -8 -9 -9 -9 -9 -9 -9 -8 -8 -8 -7 -7 -7 -7 -7 -7 -7 -8 -8 -10 -11 -11 -10 -10 -9 -10 -10 -9 -9 -9 -9 -9 -8 -8
-9 -9 -9 -9 -9 -9 -9 -9 -9 -9 -9 -9 -9 -9 -9 -8 -8 -7 -7 -8 -8 -8 -9 -10 -11 -12 -12 -11 -11 -10 -10 -10 -9 -9 -9 -9 -9 -8
-10 -10 -10 -10 -10 -10 -10 -10 -9 -10 -9 -10 -10 -9 -9 -8 -8 -8 -8 -8 -9 -9 -10 -11 -12 -12 -12 -12 -11 -11 -11 -10 -10 -9 -9 -9 -8 -8
-10 -10 -10 -10 -10 -10 -10 -10 -9 -10 -10 -9 -9 -9 -8 -8 -9 -8 -9 -9 -9 -11 -11 -12 -12 -12 -12 -12 -12 -12 -12 -11 -10 -10 -9 -9 -9 -8
-10 -10 -10 -10 -11 -11 -11 -11 -11 -11 -10 -9 -10 -9 -10 -10 -9 -9 -10 -9 -10 -12 -12 -13 -12 -12 -13 -13 -13 -12 -12 -12 -11 -10 -10 -9 -9 -8
-10 -10 -10 -11 -11 -11 -11 -11 -12 -11 -11 -10 -10 -11 -10 -11 -11 -10 -10 -10 -12 -13 -13 -13 -13 -14 -14 -14 -14 -14 -13 -13 -12 -11 -10 -10 -9 -9
-9 -9 -11 -11 -11 -11 -11 -11 -11 -11 -12 -11 -11 -11 -11 -11 -12 -12 -12 -13 -13 -14 -13 -13 -13 -14 -14 -14 -14 -14 -14 -13 -12 -11 -11 -10 -9 -9
-9 -9 -10 -11 -11 -11 -12 -11 -11 -11 -11 -11 -12 -12 -12 -13 -12 -13 -13 -14 -14 -14 -14 -14 -14 -14 -14 -14 -15 -14 -14 -13 -12 -11 -11 -10 -9 -9
-9 -9 -10 -10 -11 -10 -10 -11 -11 -11 -12 -12 -12 -13 -13 -13 -13 -13 -13 -14 -14 -14 -14 -14 -14 -14 -14 -15 -15 -15 -14 -13 -12 -11 -11 -10 -10 -9
-9 -10 -10 -10 -11 -11 -11 -11 -12 -12 -12 -12 -13 -13 -13 -14 -13 -13 -14 -15 -14 -14 -15 -14 -14 -14 -14 -14 -15 -14 -14 -13 -12 -11 -11 -11 -10 -9
-10 -10 -10 -11 -11 -11 -11 -12 -13 -13 -13 -13 -13 -13 -14 -14 -15 -15 -15 -15 -14 -15 -16 -15 -14 -15 -14 -14 -14 -14 -12 -12 -11 -11 -10 -10 -10 -9
-11 -11 -11 -12 -12 -12 -12 -13 -13 -13 -13 -14 -14 -15 -15 -15 -15 -15 -15 -15 -15 -15 -16 -15 -15 -15 -14 -14 -14 -14 -13 -12 -11 -11 -11 -10 -10 -9
-12 -12 -12 -13 -13 -13 -14 -14 -14 -14 -14 -15 -15 -15 -15 -16 -16 -16 -15 -15 -15 -15 -15 -15 -15 -14 -14 -14 -14 -13 -13 -12 -12 -11 -11 -10 -10 -10
-12 -12 -12 -13 -13 -14 -14 -14 -14 -15 -15 -15 -15 -16 -16 -16 -16 -16 -16 -16 -16 -16 -16 -15 -15 -15 -14 -14 -14 -13 -12 -12 -12 -11 -10 -10 -10 -10
-12 -12 -13 -14 -14 -14 -14 -15 -15 -16 -16 -16 -16 -16 -16 -16 -16 -16 -16 -16 -16 -16 -16 -16 -15 -15 -15 -15 -14 -14 -13 -12 -11 -11 -11 -10 -10 -10
-13 -13 -14 -14 -14 -15 -15 -16 -16 -16 -16 -16 -16 -16 -16 -17 -17 -17 -16 -16 -16 -16 -16 -16 -16 -16 -15 -15 -14 -13 -13 -13 -13 -11 -11 -11 -10 -10
-14 -14 -14 -15 -15 -15 -15 -15 -15 -15 -16 -17 -17 -17 -17 -17 -17 -17 -17 -17 -16 -16 -16 -16 -16 -15 -15 -16 -14 -13 -13 -12 -12 -12 -11 -11 -11 -10
-14 -15 -15 -15 -15 -15 -15 -15 -16 -16 -17 -17 -17 -17 -17 -17 -17 -17 -17 -17 -17 -16 -16 -16 -16 -15 -15 -15 -15 -13 -13 -13 -12 -12 -11 -11 -11 -10
-15 -15 -15 -15 -15 -15 -16 -16 -16 -17 -17 -17 -17 -17 -17 -17 -17 -17 -17 -17 -17 -17 -16 -16 -16 -16 -15 -15 -14 -14 -12 -13 -12 -13 -12 -11 -11 -10
-15 -15 -15 -15 -16 -16 -17 -17 -17 -17 -17 -17 -17 -17 -17 -17 -17 -17 -17 -17 -17 -17 -17 -16 -16 -16 -15 -15 -15 -14 -13 -12 -13 -13 -12 -12 -11 -11
-15 -15 -15 -15 -16 -17 -17 -17 -17 -18 -18 -18 -18 -18 -18 -18 -18 -18 -18 -17 -17 -17 -17 -16 -16 -16 -15 -16 -15 -14 -13 -12 -12 -12 -13 -12 -12 -12
-15 -15 -15 -16 -16 -17 -17 -17 -18 -18 -18 -18 -18 -18 -18 -18 -18 -18 -18 -17 -17 -17 -17 -16 -16 -16 -15 -16 -15 -15 -14 -13 -12 -12 -12 -13 -12 -12

GFSNE_500_temp_006.txt.gz
Temp
-8 -8 -8 -8 -8 -8 -8 -8 -8 -8 -8 -8 -8 -8 -9 -9 -8 -8 -7 -6 -7 -7 -7 -7 -7 -7 -8 -8 -9 -9 -10 -8 -8 -9 -9 -10 -10 -9
-9 -9 -9 -10 -9 -9 -9 -9 -8 -8 -8 -8 -8 -9 -9 -9 -8 -7 -7 -7 -7 -7 -7 -7 -7 -7 -8 -8 -9 -9 -9 -10 -8 -8 -9 -9 -9 -10
-8 -8 -8 -9 -9 -10 -10 -10 -10 -10 -9 -10 -9 -10 -10 -9 -9 -9 -8 -7 -7 -7 -8 -8 -8 -9 -9 -8 -9 -10 -11 -11 -11 -9 -9 -9 -9 -9
-9 -9 -9 -9 -10 -10 -11 -10 -11 -11 -10 -10 -10 -10 -10 -10 -10 -9 -9 -9 -8 -8 -8 -8 -9 -9 -9 -9 -9 -10 -12 -12 -11 -10 -10 -10 -10 -9
-8 -8 -8 -9 -9 -10 -11 -11 -11 -11 -11 -11 -12 -11 -11 -11 -11 -10 -10 -10 -9 -9 -9 -10 -10 -10 -10 -10 -11 -12 -12 -12 -12 -12 -10 -11 -11 -10
-7 -8 -8 -8 -9 -10 -10 -11 -11 -11 -11 -11 -11 -11 -12 -12 -11 -11 -11 -10 -10 -10 -10 -11 -11 -11 -11 -11 -12 -12 -12 -12 -12 -12 -12 -12 -12 -11
-8 -8 -8 -8 -9 -9 -10 -10 -10 -11 -11 -11 -12 -12 -11 -12 -10 -11 -11 -11 -11 -11 -11 -11 -12 -11 -12 -13 -13 -13 -13 -13 -13 -13 -13 -12 -12 -12
-9 -8 -8 -9 -9 -10 -10 -10 -10 -10 -10 -11 -11 -10 -11 -11 -12 -12 -11 -12 -13 -13 -13 -13 -13 -12 -13 -13 -13 -13 -14 -14 -13 -13 -13 -13 -12 -12
-9 -9 -9 -9 -9 -10 -10 -10 -10 -10 -10 -11 -11 -12 -12 -12 -12 -13 -12 -13 -13 -13 -13 -13 -14 -13 -14 -14 -14 -14 -14 -14 -14 -14 -13 -13 -12 -12
-10 -9 -9 -10 -10 -10 -10 -10 -10 -11 -11 -12 -12 -12 -13 -13 -13 -13 -13 -13 -14 -14 -15 -14 -14 -14 -14 -14 -14 -14 -15 -14 -14 -14 -13 -12 -12 -12
-10 -10 -10 -11 -11 -11 -11 -11 -11 -11 -12 -12 -13 -13 -13 -13 -13 -13 -14 -14 -14 -15 -15 -15 -15 -15 -15 -15 -15 -16 -15 -15 -14 -14 -14 -13 -12 -12
-10 -11 -11 -11 -11 -11 -11 -11 -12 -12 -13 -13 -13 -13 -13 -14 -14 -14 -15 -15 -15 -15 -16 -15 -15 -15 -15 -15 -15 -15 -15 -15 -15 -14 -14 -13 -13 -12
-11 -11 -11 -11 -11 -12 -12 -13 -13 -13 -13 -13 -14 -14 -14 -15 -15 -15 -16 -16 -16 -16 -16 -15 -15 -15 -15 -15 -15 -15 -15 -14 -14 -14 -13 -13 -12 -12
-11 -11 -11 -12 -13 -13 -13 -14 -14 -13 -14 -14 -15 -15 -15 -16 -16 -16 -16 -16 -16 -16 -16 -16 -15 -15 -15 -15 -15 -15 -15 -15 -14 -14 -12 -12 -12 -12
-12 -12 -12 -12 -12 -13 -14 -14 -14 -14 -15 -15 -15 -15 -16 -16 -16 -16 -16 -16 -16 -17 -16 -16 -16 -16 -16 -15 -15 -15 -14 -14 -15 -13 -13 -12 -12 -11
-12 -12 -13 -13 -14 -14 -14 -15 -15 -15 -15 -15 -16 -16 -16 -16 -17 -17 -17 -17 -17 -17 -17 -17 -16 -16 -16 -15 -15 -15 -14 -15 -14 -13 -13 -13 -12 -11
-12 -13 -13 -14 -14 -14 -14 -15 -15 -15 -16 -16 -16 -16 -16 -17 -17 -17 -17 -17 -17 -17 -17 -17 -17 -17 -16 -15 -15 -15 -15 -14 -14 -13 -12 -13 -12 -11
-13 -13 -13 -14 -14 -14 -14 -14 -14 -15 -15 -16 -16 -16 -17 -17 -17 -17 -17 -17 -17 -17 -17 -17 -17 -17 -17 -16 -16 -16 -15 -14 -13 -13 -12 -12 -12 -11
-13 -14 -14 -14 -14 -14 -14 -15 -15 -16 -16 -17 -17 -17 -17 -17 -17 -17 -17 -17 -17 -17 -17 -17 -17 -16 -16 -16 -16 -15 -15 -15 -13 -13 -12 -12 -12 -13
-14 -15 -15 -14 -14 -15 -15 -15 -16 -16 -17 -17 -17 -17 -17 -17 -18 -18 -18 -18 -18 -18 -17 -17 -17 -17 -16 -16 -15 -15 -15 -13 -13 -13 -13 -13 -13 -13
-14 -15 -15 -15 -15 -15 -15 -15 -16 -17 -17 -17 -18 -18 -18 -18 -18 -18 -18 -18 -18 -18 -18 -17 -17 -17 -16 -16 -16 -16 -16 -14 -13 -12 -12 -12 -12 -12
-14 -15 -15 -15 -15 -15 -15 -15 -16 -17 -17 -18 -18 -18 -18 -18 -18 -18 -18 -18 -18 -18 -17 -17 -17 -17 -16 -16 -16 -16 -16 -15 -14 -13 -12 -13 -13 -12
-15 -15 -15 -15 -15 -15 -15 -15 -16 -17 -17 -18 -18 -18 -18 -18 -18 -18 -18 -18 -18 -18 -18 -18 -17 -17 -16 -16 -15 -16 -16 -15 -14 -13 -13 -13 -13 -12

GFSNE_500_temp_009.txt.gz
Temp
-9 -9 -9 -9 -8 -8 -8 -9 -9 -9 -9 -9 -9 -8 -9 -9 -9 -10 -10 -9 -9 -9 -9 -8 -8 -7 -7 -7 -7 -8 -8 -8 -9 -9 -9 -8 -9 -9
-9 -9 -8 -8 -8 -8 -8 -9 -10 -10 -10 -9 -9 -9 -9 -9 -9 -9 -10 -10 -9 -9 -9 -9 -8 -8 -8 -8 -8 -8 -8 -9 -9 -8 -9 -9 -8 -9
-8 -9 -9 -9 -8 -8 -8 -8 -9 -10 -10 -10 -10 -10 -10 -10 -10 -10 -10 -10 -10 -10 -9 -9 -9 -9 -8 -8 -8 -8 -9 -9 -9 -9 -9 -9 -9 -9
-9 -8 -9 -9 -9 -8 -8 -8 -8 -9 -10 -10 -10 -10 -10 -10 -10 -10 -10 -10 -11 -11 -11 -10 -10 -9 -9 -9 -9 -9 -9 -9 -9 -9 -9 -8 -10 -10
-9 -8 -9 -9 -9 -9 -9 -9 -9 -9 -10 -10 -10 -10 -10 -11 -11 -11 -11 -11 -11 -11 -11 -10 -10 -10 -9 -10 -10 -10 -10 -10 -10 -10 -10 -10 -10 -10
-9 -9 -8 -8 -9 -8 -9 -9 -9 -10 -10 -10 -10 -10 -11 -11 -11 -11 -11 -11 -11 -11 -12 -11 -11 -10 -10 -10 -11 -11 -11 -10 -10 -10 -10 -10 -11 -11
-9 -9 -8 -8 -9 -9 -9 -9 -10 -10 -11 -10 -10 -11 -11 -10 -11 -11 -11 -12 -12 -12 -12 -11 -11 -11 -11 -12 -11 -11 -12 -12 -11 -11 -11 -11 -11 -11
-9 -9 -9 -9 -9 -9 -9 -10 -10 -10 -10 -11 -10 -10 -11 -11 -12 -12 -12 -12 -13 -13 -12 -12 -12 -12 -12 -13 -13 -13 -12 -12 -13 -13 -12 -12 -12 -12
-9 -9 -9 -9 -10 -10 -10 -11 -10 -10 -10 -11 -11 -12 -12 -12 -12 -13 -13 -13 -13 -13 -13 -13 -13 -13 -13 -14 -14 -14 -14 -14 -14 -14 -14 -14 -13 -13
-9 -10 -10 -10 -10 -11 -11 -11 -11 -11 -12 -12 -12 -12 -12 -13 -13 -13 -13 -14 -14 -14 -14 -13 -14 -14 -14 -15 -15 -15 -15 -15 -15 -15 -14 -14 -14 -14
-9 -10 -10 -10 -10 -11 -11 -12 -12 -13 -13 -13 -13 -13 -13 -14 -14 -14 -14 -14 -14 -15 -15 -14 -15 -15 -15 -15 -15 -15 -15 -15 -15 -15 -15 -15 -14 -14
-10 -10 -11 -11 -11 -11 -12 -12 -12 -13 -13 -14 -14 -14 -14 -14 -14 -14 -15 -15 -15 -15 -16 -15 -15 -16 -15 -16 -16 -16 -16 -16 -15 -15 -15 -15 -15 -14
-10 -10 -11 -11 -11 -11 -12 -12 -12 -13 -13 -14 -14 -15 -15 -15 -15 -15 -16 -16 -16 -16 -16 -16 -16 -16 -16 -16 -16 -16 -16 -16 -16 -16 -16 -16 -15 -14
-10 -10 -11 -11 -11 -12 -13 -13 -13 -13 -14 -14 -14 -15 -15 -15 -16 -15 -16 -16 -16 -16 -16 -17 -16 -16 -16 -16 -16 -16 -16 -16 -16 -15 -15 -15 -15 -14
-10 -10 -11 -11 -11 -12 -13 -13 -14 -14 -14 -15 -15 -15 -15 -15 -16 -16 -16 -17 -17 -17 -17 -17 -17 -17 -17 -16 -16 -16 -16 -16 -16 -15 -15 -15 -14 -13
-11 -11 -12 -12 -12 -13 -13 -14 -14 -15 -15 -16 -15 -15 -15 -15 -16 -17 -17 -17 -17 -18 -17 -17 -17 -17 -17 -17 -17 -16 -16 -15 -15 -15 -14 -14 -13 -13
-11 -11 -12 -13 -13 -13 -14 -14 -15 -15 -16 -16 -15 -16 -16 -17 -17 -17 -17 -17 -17 -17 -18 -18 -18 -17 -17 -17 -17 -17 -16 -15 -15 -15 -14 -14 -13 -13
-11 -12 -13 -13 -13 -14 -15 -15 -15 -15 -15 -15 -15 -16 -17 -17 -17 -17 -17 -17 -18 -18 -18 -18 -18 -18 -18 -18 -17 -16 -16 -15 -15 -15 -14 -13 -13 -12
-13 -13 -13 -14 -14 -15 -15 -14 -14 -14 -15 -15 -15 -16 -17 -18 -18 -18 -18 -18 -18 -18 -18 -18 -18 -17 -17 -17 -17 -17 -16 -15 -15 -15 -14 -13 -13 -12
-13 -14 -14 -14 -14 -15 -15 -15 -15 -15 -15 -15 -16 -17 -18 -18 -18 -18 -18 -18 -18 -18 -18 -18 -18 -17 -17 -17 -17 -17 -16 -15 -15 -14 -14 -13 -13 -13
-13 -13 -14 -14 -15 -15 -15 -15 -15 -15 -15 -15 -16 -17 -17 -18 -18 -18 -18 -18 -18 -18 -18 -18 -18 -17 -17 -17 -16 -16 -16 -16 -15 -14 -14 -13 -13 -13
-13 -14 -14 -14 -15 -15 -14 -15 -15 -15 -15 -15 -16 -16 -17 -18 -18 -18 -18 -18 -18 -18 -18 -18 -18 -18 -17 -17 -17 -16 -16 -15 -16 -14 -14 -13 -12 -13
-14 -14 -14 -15 -15 -15 -15 -15 -15 -15 -16 -16 -16 -16 -17 -17 -18 -18 -18 -18 -18 -18 -18 -19 -19 -19 -18 -17 -16 -16 -16 -15 -15 -14 -14 -13 -13 -13

GFSNE_500_temp_012.txt.gz
Temp
-9 -9 -8 -8 -7 -7 -7 -7 -7 -7 -8 -9 -9 -10 -10 -10 -10 -10 -10 -10 -10 -10 -10 -10 -9 -9 -8 -8 -9 -9 -9 -9 -8 -9 -9 -9 -9 -8
-9 -9 -8 -8 -8 -8 -8 -7 -7 -7 -8 -8 -9 -9 -10 -10 -10 -11 -12 -11 -11 -11 -11 -11 -10 -10 -10 -9 -9 -9 -9 -9 -9 -8 -9 -9 -9 -9
-9 -9 -8 -8 -8 -8 -8 -8 -8 -8 -8 -8 -9 -9 -9 -9 -10 -10 -11 -11 -11 -11 -11 -11 -11 -11 -10 -10 -9 -9 -9 -9 -9 -9 -8 -9 -9 -9
-9 -9 -9 -8 -8 -8 -8 -8 -8 -8 -9 -9 -9 -9 -9 -10 -10 -10 -10 -10 -11 -11 -12 -11 -11 -11 -11 -10 -10 -10 -10 -9 -10 -9 -9 -9 -9 -9
-9 -9 -9 -9 -8 -8 -7 -8 -8 -8 -8 -9 -10 -10 -10 -10 -10 -10 -10 -11 -11 -11 -11 -12 -12 -12 -12 -11 -11 -11 -10 -10 -9 -10 -9 -10 -10 -9
-9 -9 -9 -9 -9 -8 -7 -8 -9 -9 -9 -9 -9 -10 -10 -10 -10 -11 -11 -11 -11 -11 -12 -12 -12 -12 -12 -12 -12 -11 -11 -10 -10 -10 -10 -10 -10 -10
-9 -9 -9 -9 -9 -9 -8 -9 -9 -10 -9 -10 -10 -10 -10 -11 -10 -11 -11 -12 -12 -12 -12 -12 -12 -12 -12 -13 -13 -12 -12 -11 -11 -11 -11 -10 -11 -11
-9 -9 -10 -9 -9 -9 -10 -10 -10 -10 -10 -11 -10 -11 -11 -11 -11 -12 -12 -12 -13 -13 -12 -13 -13 -13 -13 -13 -12 -12 -12 -12 -12 -12 -12 -11 -11 -11
-9 -9 -10 -9 -9 -10 -10 -10 -10 -10 -11 -11 -11 -12 -12 -12 -12 -13 -12 -13 -13 -14 -13 -14 -14 -13 -13 -14 -14 -13 -13 -13 -13 -13 -13 -13 -13 -13
-10 -10 -10 -10 -10 -10 -10 -10 -11 -11 -12 -12 -12 -12 -13 -13 -13 -13 -13 -13 -14 -14 -14 -13 -15 -14 -15 -15 -15 -15 -15 -15 -15 -14 -14 -14 -14 -14
-10 -10 -10 -10 -10 -10 -10 -11 -11 -12 -12 -13 -13 -13 -13 -13 -14 -14 -14 -14 -14 -15 -15 -14 -15 -15 -15 -16 -16 -16 -15 -15 -16 -15 -15 -15 -15 -15
-9 -10 -10 -9 -10 -10 -11 -11 -12 -12 -13 -13 -13 -13 -14 -14 -15 -14 -15 -15 -15 -15 -16 -15 -15 -15 -15 -16 -16 -17 -16 -16 -16 -16 -16 -15 -15 -15
-9 -9 -9 -9 -10 -11 -11 -12 -12 -13 -13 -13 -14 -14 -15 -15 -15 -15 -15 -15 -16 -15 -16 -16 -16 -16 -16 -16 -17 -17 -17 -17 -17 -16 -16 -16 -15 -15
-9 -9 -10 -10 -10 -11 -12 -12 -13 -13 -13 -14 -14 -14 -14 -15 -15 -15 -16 -16 -16 -16 -16 -16 -16 -17 -17 -17 -17 -17 -17 -17 -17 -17 -16 -16 -16 -16
-9 -9 -10 -10 -11 -11 -12 -13 -13 -13 -14 -14 -14 -14 -15 -15 -15 -15 -16 -16 -17 -17 -17 -17 -17 -17 -17 -17 -17 -17 -17 -17 -17 -17 -17 -16 -16 -16
-9 -9 -10 -10 -11 -12 -13 -13 -13 -14 -14 -15 -15 -15 -15 -15 -15 -16 -17 -17 -18 -18 -18 -17 -17 -17 -18 -18 -17 -17 -17 -17 -17 -17 -16 -16 -16 -15
-9 -10 -10 -11 -11 -12 -13 -14 -14 -14 -15 -15 -15 -15 -15 -15 -16 -17 -18 -18 -18 -18 -18 -18 -18 -18 -18 -18 -18 -17 -17 -17 -17 -16 -16 -15 -15 -15
-10 -10 -11 -11 -12 -12 -13 -13 -14 -15 -15 -15 -15 -15 -15 -16 -16 -17 -18 -18 -18 -18 -18 -18 -18 -18 -18 -18 -18 -17 -17 -17 -16 -16 -16 -15 -15 -15
-10 -10 -11 -11 -12 -12 -13 -14 -15 -15 -15 -15 -15 -15 -15 -16 -16 -17 -17 -18 -18 -18 -18 -18 -18 -18 -18 -18 -18 -18 -17 -16 -16 -16 -15 -15 -15 -14
-10 -11 -12 -12 -12 -13 -14 -14 -15 -14 -14 -15 -15 -15 -15 -16 -16 -17 -17 -18 -18 -19 -19 -19 -18 -18 -18 -18 -18 -18 -17 -16 -16 -15 -15 -15 -15 -13
-11 -11 -12 -12 -13 -13 -14 -14 -14 -14 -15 -15 -15 -15 -16 -16 -16 -17 -17 -18 -18 -18 -18 -18 -18 -19 -19 -18 -18 -18 -17 -17 -16 -15 -15 -14 -14 -13
-11 -12 -12 -13 -13 -14 -14 -14 -14 -15 -15 -15 -15 -16 -16 -16 -16 -17 -17 -17 -18 -18 -18 -18 -19 -19 -19 -19 -18 -18 -17 -17 -16 -16 -15 -14 -13 -13
-12 -12 -13 -13 -14 -15 -14 -14 -14 -14 -15 -15 -15 -16 -16 -16 -16 -17 -17 -17 -17 -18 -18 -18 -19 -19 -19 -19 -18 -18 -17 -17 -16 -16 -16 -14 -14 -13

GFSNE_500_temp_015.txt.gz
Temp
-8 -8 -9 -9 -8 -8 -8 -8 -7 -7 -7 -7 -7 -9 -9 -9 -9 -10 -10 -11 -10 -10 -10 -10 -10 -10 -10 -10 -9 -9 -9 -9 -9 -9 -9 -9 -9 -9
-9 -9 -9 -9 -9 -8 -8 -8 -8 -8 -8 -8 -8 -8 -9 -10 -10 -10 -10 -11 -11 -11 -11 -11 -11 -11 -10 -10 -10 -10 -10 -10 -10 -10 -10 -10 -10 -10
-9 -9 -9 -8 -9 -8 -8 -8 -8 -8 -8 -8 -8 -9 -9 -10 -10 -11 -11 -11 -11 -11 -11 -12 -12 -11 -11 -11 -11 -11 -10 -10 -10 -10 -10 -10 -10 -9
-9 -9 -9 -9 -8 -8 -8 -8 -8 -8 -8 -9 -9 -9 -10 -9 -10 -10 -11 -11 -11 -10 -11 -11 -11 -11 -12 -12 -11 -11 -10 -10 -10 -10 -10 -10 -10 -10
-9 -9 -9 -9 -9 -9 -8 -8 -8 -8 -9 -10 -9 -10 -10 -9 -10 -10 -10 -11 -11 -11 -11 -11 -11 -11 -12 -12 -12 -12 -12 -12 -12 -12 -11 -11 -11 -10
-10 -10 -9 -9 -9 -9 -8 -8 -8 -8 -9 -9 -9 -9 -9 -10 -10 -10 -11 -11 -12 -12 -12 -13 -13 -13 -12 -12 -12 -12 -12 -12 -12 -11 -11 -12 -12 -11
-10 -10 -10 -9 -9 -9 -9 -8 -8 -8 -8 -8 -9 -9 -10 -11 -10 -10 -11 -11 -12 -13 -13 -13 -13 -13 -13 -13 -13 -13 -13 -13 -12 -12 -12 -12 -11 -12
-10 -11 -10 -9 -9 -9 -9 -9 -8 -9 -9 -9 -10 -10 -11 -11 -11 -11 -11 -12 -13 -13 -13 -14 -13 -13 -13 -14 -14 -14 -13 -13 -12 -12 -12 -12 -11 -11
-10 -10 -10 -9 -9 -9 -9 -9 -9 -10 -10 -10 -11 -12 -12 -12 -12 -13 -13 -13 -13 -13 -13 -13 -14 -14 -14 -14 -14 -14 -15 -14 -14 -14 -13 -13 -13 -12
-10 -10 -10 -9 -9 -9 -9 -10 -10 -11 -10 -11 -11 -12 -12 -12 -12 -13 -13 -13 -14 -15 -14 -14 -15 -15 -15 -15 -15 -15 -15 -15 -15 -15 -15 -14 -14 -13
-10 -10 -9 -9 -9 -9 -9 -9 -10 -10 -11 -11 -11 -12 -12 -13 -13 -13 -14 -14 -14 -14 -15 -15 -15 -15 -15 -16 -16 -16 -16 -16 -15 -15 -15 -15 -15 -15
-10 -10 -9 -9 -9 -9 -9 -10 -11 -11 -11 -12 -12 -13 -14 -14 -14 -14 -14 -14 -14 -15 -15 -15 -16 -16 -15 -16 -17 -17 -17 -16 -16 -16 -16 -16 -16 -16
-9 -10 -10 -10 -9 -9 -10 -10 -10 -11 -11 -12 -13 -13 -14 -14 -14 -14 -14 -15 -15 -15 -15 -15 -16 -17 -17 -16 -17 -18 -17 -17 -17 -17 -17 -17 -16 -16
-9 -10 -10 -10 -9 -9 -10 -10 -10 -11 -12 -13 -14 -14 -14 -14 -14 -15 -15 -15 -15 -15 -16 -17 -17 -18 -18 -18 -17 -18 -18 -18 -18 -18 -17 -17 -17 -17
-9 -9 -9 -9 -9 -10 -10 -10 -11 -12 -13 -13 -13 -14 -14 -14 -14 -14 -15 -15 -16 -17 -17 -18 -18 -18 -18 -18 -18 -18 -17 -18 -18 -18 -17 -17 -17 -17
-10 -10 -10 -10 -9 -10 -10 -10 -11 -12 -12 -13 -14 -14 -14 -14 -14 -15 -15 -15 -16 -17 -17 -18 -18 -18 -18 -18 -18 -18 -18 -18 -18 -18 -17 -17 -17 -17
-9 -10 -11 -10 -10 -10 -10 -11 -12 -12 -13 -13 -14 -14 -14 -15 -15 -15 -15 -16 -16 -17 -18 -18 -18 -18 -18 -18 -18 -18 -18 -18 -18 -17 -17 -17 -17 -17
-10 -10 -10 -10 -10 -10 -11 -12 -12 -12 -13 -13 -14 -14 -15 -15 -15 -15 -16 -16 -17 -17 -18 -18 -18 -18 -19 -19 -18 -17 -18 -17 -17 -17 -17 -16 -16 -16
-10 -10 -10 -10 -10 -10 -11 -12 -12 -13 -13 -14 -14 -15 -15 -15 -15 -16 -16 -16 -17 -17 -17 -17 -18 -18 -18 -18 -19 -19 -18 -18 -18 -17 -17 -16 -16 -16
-9 -10 -11 -11 -11 -11 -12 -12 -13 -13 -14 -14 -14 -15 -15 -15 -15 -16 -16 -16 -17 -17 -17 -18 -18 -18 -18 -18 -19 -19 -19 -18 -18 -17 -17 -16 -16 -16
-10 -10 -11 -11 -11 -12 -12 -12 -13 -13 -14 -14 -14 -15 -15 -15 -15 -16 -16 -16 -17 -17 -17 -17 -18 -18 -18 -18 -19 -19 -19 -18 -18 -17 -16 -15 -15 -15
-10 -11 -11 -12 -12 -12 -12 -13 -13 -14 -14 -14 -14 -15 -15 -15 -15 -16 -16 -17 -17 -17 -17 -17 -18 -18 -18 -18 -18 -18 -18 -18 -18 -18 -17 -15 -14 -13
-11 -11 -11 -12 -12 -12 -12 -13 -13 -14 -14 -14 -15 -15 -15 -15 -15 -16 -16 -17 -17 -17 -17 -17 -18 -18 -18 -18 -18 -18 -18 -18 -18 -18 -17 -17 -16 -14

GFSNE_500_temp_021.txt.gz
Temp
-8 -8 -9 -9 -8 -8 -8 -8 -8 -7 -7 -7 -7 -7 -7 -7 -7 -8 -8 -8 -8 -8 -8 -8 -9 -9 -10 -10 -10 -10 -10 -10 -10 -10 -9 -9 -9 -8
-9 -9 -8 -8 -8 -8 -8 -8 -8 -7 -7 -7 -7 -7 -7 -8 -8 -8 -8 -8 -9 -9 -9 -9 -9 -9 -10 -10 -11 -11 -11 -11 -10 -10 -11 -10 -10 -9
-9 -9 -9 -9 -8 -8 -8 -8 -7 -7 -7 -7 -7 -8 -8 -8 -8 -9 -9 -9 -9 -10 -10 -10 -10 -10 -10 -10 -10 -10 -11 -11 -11 -11 -11 -11 -11 -11
-9 -9 -9 -9 -8 -8 -8 -8 -8 -8 -7 -7 -7 -8 -8 -8 -9 -9 -9 -10 -10 -10 -10 -10 -10 -11 -11 -11 -11 -11 -11 -11 -11 -11 -11 -11 -11 -11
-9 -9 -10 -9 -9 -8 -8 -8 -8 -8 -8 -8 -8 -8 -8 -9 -9 -9 -10 -10 -10 -10 -11 -12 -12 -12 -12 -13 -13 -13 -13 -12 -12 -12 -11 -12 -12 -12
-9 -10 -10 -9 -8 -9 -8 -8 -8 -8 -8 -8 -8 -8 -9 -9 -9 -9 -10 -10 -10 -10 -11 -12 -12 -13 -13 -14 -14 -13 -13 -13 -13 -13 -13 -13 -12 -12
-9 -10 -10 -10 -9 -9 -8 -8 -8 -8 -8 -8 -9 -9 -9 -9 -9 -10 -10 -11 -11 -12 -13 -13 -14 -14 -13 -13 -13 -13 -13 -13 -13 -13 -13 -13 -13 -13
-9 -9 -10 -10 -10 -9 -9 -9 -9 -9 -9 -9 -9 -9 -9 -9 -9 -9 -10 -12 -13 -13 -14 -14 -14 -14 -14 -14 -14 -14 -14 -14 -14 -14 -14 -14 -14 -14
-9 -9 -9 -10 -10 -9 -9 -9 -9 -9 -9 -9 -9 -9 -10 -10 -9 -10 -10 -11 -12 -12 -13 -14 -14 -14 -14 -14 -14 -14 -14 -14 -14 -14 -14 -14 -14 -14
-10 -9 -9 -10 -10 -10 -9 -9 -9 -9 -9 -9 -9 -9 -10 -10 -9 -10 -11 -11 -12 -13 -14 -14 -14 -14 -14 -15 -15 -15 -14 -14 -15 -15 -15 -15 -15 -15
-10 -10 -9 -10 -10 -10 -10 -10 -10 -10 -10 -10 -10 -9 -10 -9 -10 -11 -11 -12 -13 -13 -14 -14 -14 -15 -15 -15 -15 -15 -15 -15 -16 -17 -17 -16 -16 -16
-10 -10 -10 -10 -10 -10 -10 -10 -10 -10 -11 -10 -10 -10 -10 -10 -10 -11 -12 -13 -13 -14 -14 -14 -14 -15 -15 -16 -16 -16 -16 -17 -17 -17 -18 -18 -17 -17
-10 -10 -10 -10 -10 -10 -10 -10 -10 -10 -10 -10 -10 -10 -10 -10 -11 -12 -13 -13 -13 -14 -14 -14 -15 -15 -15 -16 -16 -17 -17 -17 -18 -18 -18 -18 -18 -18
-10 -11 -11 -11 -11 -11 -10 -10 -10 -10 -10 -10 -10 -10 -10 -11 -12 -12 -13 -13 -14 -14 -14 -15 -15 -15 -15 -16 -16 -17 -17 -18 -18 -18 -18 -18 -18 -18
-10 -11 -11 -11 -11 -10 -11 -10 -10 -10 -10 -10 -10 -10 -10 -11 -12 -13 -13 -14 -14 -14 -14 -15 -15 -15 -16 -16 -16 -17 -17 -17 -17 -17 -17 -18 -18 -18
-10 -10 -10 -10 -9 -10 -10 -10 -9 -10 -10 -10 -10 -10 -10 -11 -12 -13 -14 -14 -14 -14 -14 -15 -15 -15 -16 -16 -16 -16 -17 -17 -17 -17 -17 -18 -18 -18
-9 -9 -9 -8 -9 -10 -9 -10 -9 -9 -10 -10 -10 -10 -11 -11 -13 -13 -14 -14 -14 -14 -15 -15 -15 -16 -16 -16 -16 -16 -17 -17 -17 -17 -18 -18 -19 -18
-9 -10 -9 -8 -10 -9 -10 -10 -9 -10 -10 -10 -10 -11 -11 -12 -13 -14 -14 -14 -14 -14 -15 -15 -16 -16 -16 -17 -16 -16 -17 -17 -17 -17 -17 -18 -18 -18
-8 -8 -9 -9 -10 -9 -10 -10 -10 -10 -11 -11 -10 -11 -11 -12 -13 -14 -14 -14 -14 -15 -15 -15 -16 -16 -16 -17 -17 -17 -17 -17 -17 -17 -18 -18 -18 -18
-8 -9 -9 -10 -10 -10 -10 -11 -11 -11 -11 -11 -11 -11 -11 -12 -13 -14 -14 -14 -14 -15 -15 -15 -16 -16 -16 -16 -17 -17 -17 -17 -17 -17 -17 -18 -18 -18
-9 -9 -10 -9 -9 -9 -10 -10 -11 -11 -11 -11 -11 -11 -12 -13 -13 -14 -14 -14 -14 -15 -15 -15 -16 -16 -16 -16 -16 -17 -17 -17 -17 -17 -17 -17 -17 -17
-10 -10 -10 -9 -9 -10 -9 -10 -10 -11 -11 -11 -12 -11 -12 -12 -13 -14 -14 -14 -14 -15 -15 -15 -16 -16 -16 -16 -16 -17 -17 -17 -17 -17 -17 -17 -17 -17
-11 -11 -10 -10 -10 -10 -11 -10 -10 -11 -11 -12 -12 -12 -12 -12 -13 -14 -14 -14 -14 -15 -15 -15 -15 -15 -16 -16 -16 -16 -17 -17 -17 -17 -17 -18 -18 -18

GFSNE_500_temp_024.txt.gz
Temp
-8 -9 -9 -8 -8 -8 -7 -7 -7 -7 -7 -6 -6 -6 -7 -7 -7 -7 -8 -8 -8 -8 -8 -8 -8 -8 -8 -9 -10 -10 -10 -10 -11 -11 -11 -11 -11 -10
-9 -9 -9 -9 -8 -8 -7 -7 -7 -7 -7 -7 -7 -7 -7 -8 -8 -8 -8 -8 -8 -8 -9 -9 -9 -9 -10 -10 -10 -11 -11 -11 -11 -11 -11 -11 -11 -11
-9 -9 -9 -9 -9 -8 -8 -8 -7 -7 -7 -7 -7 -8 -8 -8 -7 -8 -8 -8 -8 -9 -9 -10 -10 -10 -11 -11 -11 -11 -11 -12 -12 -12 -12 -11 -11 -11
-9 -9 -9 -8 -9 -8 -8 -8 -8 -7 -7 -7 -7 -7 -8 -8 -8 -8 -8 -8 -8 -9 -9 -9 -9 -11 -12 -12 -13 -13 -13 -12 -12 -12 -12 -12 -12 -12
-9 -9 -9 -9 -9 -9 -8 -8 -8 -8 -8 -8 -7 -7 -7 -8 -9 -9 -9 -9 -9 -9 -9 -9 -10 -12 -12 -13 -13 -14 -14 -13 -14 -13 -12 -13 -13 -13
-8 -9 -9 -9 -9 -9 -9 -8 -8 -8 -8 -8 -8 -8 -8 -8 -8 -9 -9 -9 -9 -9 -9 -9 -11 -12 -13 -13 -14 -14 -14 -14 -13 -14 -14 -13 -13 -13
-8 -9 -9 -9 -9 -9 -9 -9 -9 -9 -8 -8 -9 -8 -8 -8 -9 -9 -9 -9 -8 -9 -10 -11 -11 -12 -12 -13 -14 -14 -14 -14 -14 -14 -14 -14 -14 -14
-8 -9 -9 -9 -9 -9 -9 -9 -9 -9 -9 -9 -9 -9 -9 -9 -9 -9 -9 -9 -9 -9 -11 -12 -12 -13 -13 -13 -14 -14 -14 -14 -14 -14 -14 -14 -14 -14
-8 -8 -9 -9 -9 -9 -9 -9 -10 -10 -10 -9 -9 -10 -10 -10 -9 -10 -10 -10 -10 -10 -11 -12 -13 -13 -14 -14 -14 -14 -14 -15 -15 -15 -15 -15 -15 -14
-8 -8 -9 -9 -9 -9 -10 -9 -10 -10 -10 -9 -10 -10 -11 -10 -10 -10 -10 -10 -10 -11 -12 -13 -13 -13 -14 -14 -14 -15 -15 -15 -15 -16 -16 -16 -16 -16
-8 -9 -9 -9 -9 -9 -10 -10 -10 -10 -10 -9 -10 -10 -10 -10 -10 -10 -10 -10 -10 -11 -11 -13 -13 -13 -14 -14 -14 -15 -15 -15 -16 -16 -16 -17 -17 -17
-8 -9 -9 -9 -9 -10 -10 -10 -10 -11 -10 -10 -10 -10 -10 -10 -10 -9 -9 -10 -10 -11 -13 -13 -13 -14 -14 -14 -15 -15 -16 -16 -16 -16 -16 -17 -17 -17
-9 -9 -9 -9 -10 -10 -10 -10 -11 -10 -10 -10 -10 -10 -10 -10 -10 -10 -10 -10 -11 -11 -13 -13 -14 -14 -14 -14 -15 -16 -16 -16 -16 -16 -16 -17 -17 -17
-8 -9 -9 -10 -10 -10 -10 -11 -11 -10 -9 -9 -10 -10 -10 -10 -10 -10 -10 -11 -11 -12 -13 -13 -14 -14 -14 -14 -15 -16 -16 -16 -16 -17 -17 -16 -16 -17
-8 -8 -8 -9 -9 -9 -10 -11 -11 -10 -10 -10 -10 -10 -10 -10 -10 -10 -11 -11 -11 -12 -13 -13 -14 -14 -14 -14 -15 -16 -16 -16 -16 -16 -17 -17 -17 -17
-8 -8 -9 -9 -8 -9 -9 -10 -9 -10 -10 -10 -10 -10 -10 -10 -10 -10 -11 -11 -11 -12 -13 -13 -14 -14 -14 -14 -15 -15 -16 -16 -16 -16 -17 -17 -17 -17
-8 -9 -9 -8 -9 -9 -9 -9 -9 -9 -10 -11 -10 -10 -10 -10 -10 -11 -11 -11 -12 -12 -13 -13 -14 -14 -14 -14 -15 -15 -16 -16 -16 -16 -17 -17 -18 -18
-8 -8 -8 -9 -9 -9 -8 -8 -9 -9 -10 -10 -9 -10 -10 -10 -10 -11 -11 -11 -12 -13 -13 -13 -14 -14 -14 -14 -15 -15 -16 -16 -17 -17 -17 -17 -18 -18
-8 -9 -9 -9 -8 -8 -8 -9 -9 -10 -10 -9 -10 -10 -10 -10 -10 -11 -11 -12 -12 -13 -13 -14 -14 -14 -15 -15 -15 -15 -16 -16 -17 -17 -17 -17 -17 -18
-9 -9 -9 -8 -9 -9 -9 -9 -9 -10 -10 -10 -11 -11 -11 -10 -11 -11 -11 -12 -12 -13 -14 -14 -14 -14 -15 -15 -15 -15 -15 -16 -16 -17 -17 -17 -17 -17
-10 -9 -9 -9 -9 -9 -9 -10 -10 -10 -10 -10 -11 -11 -11 -10 -11 -11 -11 -12 -13 -13 -13 -14 -14 -14 -15 -15 -15 -15 -15 -15 -16 -17 -17 -17 -17 -17
-10 -10 -10 -10 -9 -10 -10 -10 -11 -10 -10 -10 -10 -11 -11 -11 -11 -11 -12 -12 -13 -13 -14 -14 -14 -14 -14 -15 -15 -15 -15 -15 -16 -16 -17 -17 -17 -17
-10 -10 -10 -10 -10 -10 -10 -11 -10 -10 -10 -10 -10 -11 -11 -11 -11 -12 -12 -13 -13 -13 -14 -14 -14 -14 -15 -15 -15 -15 -15 -15 -15 -16 -17 -17 -17 -17

GFSNE_500_temp_027.txt.gz
Temp
-8 -8 -8 -8 -8 -8 -7 -7 -7 -7 -7 -7 -7 -7 -7 -7 -7 -8 -8 -8 -8 -8 -8 -8 -8 -8 -9 -9 -9 -10 -10 -11 -11 -11 -11 -12 -12 -12
-8 -8 -8 -9 -8 -8 -8 -7 -7 -7 -7 -7 -7 -7 -7 -7 -7 -7 -7 -8 -8 -8 -8 -8 -8 -8 -9 -9 -10 -11 -12 -12 -12 -12 -12 -12 -12 -12
-8 -8 -9 -8 -8 -8 -8 -8 -8 -7 -7 -7 -7 -8 -8 -7 -7 -7 -7 -8 -8 -8 -8 -8 -8 -8 -9 -10 -10 -11 -12 -13 -13 -13 -13 -13 -13 -13
-8 -8 -9 -9 -9 -9 -8 -8 -8 -8 -7 -8 -7 -7 -7 -8 -7 -7 -7 -7 -8 -8 -8 -8 -8 -8 -9 -10 -11 -12 -13 -13 -13 -13 -14 -14 -14 -14
-8 -8 -8 -9 -9 -8 -8 -9 -8 -8 -8 -8 -8 -8 -8 -7 -7 -8 -8 -8 -8 -8 -8 -8 -9 -9 -10 -11 -12 -12 -13 -14 -14 -14 -14 -14 -14 -14
-7 -7 -8 -8 -8 -9 -9 -9 -9 -9 -9 -9 -8 -8 -8 -8 -8 -8 -8 -8 -8 -8 -8 -7 -8 -10 -10 -11 -12 -13 -13 -14 -14 -14 -14 -14 -14 -14
-8 -7 -7 -8 -8 -8 -9 -9 -9 -9 -9 -9 -9 -9 -9 -9 -8 -9 -9 -8 -8 -8 -9 -9 -8 -8 -10 -11 -12 -12 -13 -14 -14 -14 -15 -15 -15 -15
-7 -8 -8 -8 -8 -8 -9 -9 -9 -9 -9 -9 -9 -9 -9 -9 -10 -10 -9 -9 -9 -8 -8 -9 -9 -9 -10 -11 -12 -12 -13 -13 -13 -14 -14 -15 -15 -15
-7 -8 -8 -8 -8 -9 -9 -9 -9 -9 -9 -9 -9 -9 -9 -9 -9 -10 -9 -9 -9 -9 -9 -9 -10 -10 -12 -12 -12 -13 -14 -14 -14 -15 -15 -15 -15 -15
-7 -7 -8 -8 -8 -8 -9 -9 -9 -9 -9 -9 -9 -9 -9 -9 -9 -9 -10 -10 -9 -9 -9 -10 -10 -11 -12 -13 -13 -13 -14 -14 -14 -15 -15 -15 -16 -16
-7 -7 -7 -8 -8 -8 -9 -8 -8 -8 -9 -9 -9 -9 -10 -10 -10 -10 -9 -10 -10 -9 -9 -10 -10 -11 -12 -13 -13 -13 -14 -14 -15 -15 -15 -15 -16 -16
-7 -7 -7 -8 -8 -8 -8 -9 -8 -9 -9 -9 -9 -10 -10 -10 -10 -10 -10 -10 -10 -10 -10 -10 -10 -11 -12 -13 -13 -13 -14 -14 -14 -15 -15 -16 -16 -16
-8 -8 -7 -8 -9 -8 -9 -9 -8 -9 -9 -10 -10 -11 -10 -10 -10 -10 -11 -10 -11 -10 -10 -11 -11 -11 -12 -13 -13 -14 -14 -14 -15 -15 -15 -16 -16 -16
-8 -8 -8 -8 -8 -9 -9 -9 -9 -8 -8 -9 -9 -9 -11 -11 -10 -10 -10 -10 -10 -10 -10 -11 -11 -12 -13 -13 -13 -14 -14 -14 -15 -15 -16 -16 -16 -16
-8 -8 -8 -8 -8 -8 -9 -10 -9 -8 -9 -9 -9 -9 -11 -10 -10 -10 -10 -10 -10 -10 -10 -11 -11 -12 -13 -13 -13 -14 -14 -15 -15 -15 -16 -16 -16 -16
-8 -8 -8 -7 -8 -8 -9 -9 -9 -9 -9 -9 -9 -9 -9 -9 -9 -10 -10 -10 -10 -10 -10 -11 -12 -12 -12 -13 -13 -14 -14 -15 -15 -15 -15 -16 -16 -16
-8 -7 -8 -8 -7 -8 -8 -8 -8 -9 -9 -9 -9 -9 -9 -9 -9 -9 -11 -11 -10 -10 -10 -12 -12 -12 -13 -13 -13 -14 -14 -15 -15 -15 -15 -15 -16 -16
-8 -8 -8 -8 -7 -8 -7 -7 -7 -8 -7 -8 -8 -9 -8 -8 -10 -10 -10 -10 -10 -10 -11 -11 -12 -13 -13 -13 -14 -14 -15 -15 -15 -15 -15 -15 -15 -16
-8 -8 -8 -8 -8 -8 -8 -8 -8 -8 -9 -8 -8 -8 -9 -10 -10 -10 -10 -10 -10 -10 -11 -11 -12 -12 -13 -13 -13 -14 -15 -15 -15 -15 -15 -15 -15 -15
-7 -7 -7 -7 -8 -8 -9 -9 -9 -9 -9 -8 -9 -9 -10 -10 -9 -10 -10 -10 -10 -10 -11 -11 -12 -13 -13 -13 -14 -14 -14 -15 -15 -15 -15 -15 -15 -15
-6 -6 -6 -6 -7 -8 -9 -9 -10 -8 -10 -9 -9 -9 -9 -9 -10 -10 -10 -10 -10 -10 -11 -11 -12 -13 -13 -13 -14 -14 -14 -15 -15 -15 -15 -15 -15 -15
-6 -5 -6 -6 -4 -7 -10 -11 -10 -10 -9 -9 -10 -10 -11 -10 -10 -10 -10 -10 -10 -11 -11 -12 -12 -13 -13 -13 -14 -14 -15 -15 -15 -15 -15 -15 -15 -15
-6 -4 -5 -7 -7 -4 -8 -9 -9 -10 -10 -10 -10 -10 -10 -11 -10 -10 -10 -10 -10 -11 -11 -12 -12 -13 -13 -13 -14 -14 -14 -15 -15 -15 -15 -15 -15 -15

GFSNE_500_temp_030.txt.gz
Temp
-6 -7 -7 -7 -7 -8 -7 -7 -6 -7 -7 -7 -6 -7 -7 -7 -7 -7 -7 -7 -7 -7 -7 -7 -7 -7 -7 -7 -8 -8 -8 -10 -11 -12 -12 -13 -13 -13
-6 -7 -7 -8 -7 -7 -7 -7 -7 -6 -7 -7 -7 -7 -7 -7 -8 -8 -7 -7 -7 -7 -7 -7 -7 -7 -7 -7 -8 -8 -9 -10 -12 -12 -13 -13 -13 -13
-7 -7 -7 -8 -8 -7 -7 -7 -7 -7 -7 -7 -7 -7 -8 -8 -8 -8 -8 -7 -8 -7 -7 -7 -7 -7 -8 -8 -8 -9 -11 -11 -12 -13 -13 -13 -13 -13
-7 -7 -7 -8 -8 -9 -9 -8 -8 -8 -8 -8 -8 -8 -8 -8 -8 -8 -8 -8 -8 -8 -8 -8 -7 -8 -8 -8 -9 -10 -11 -12 -13 -13 -14 -14 -14 -14
-7 -7 -7 -8 -8 -8 -8 -8 -9 -8 -9 -8 -8 -8 -8 -9 -9 -8 -9 -9 -8 -8 -8 -8 -8 -8 -8 -9 -9 -10 -10 -11 -12 -13 -13 -14 -15 -14
-7 -7 -7 -7 -8 -8 -9 -9 -9 -9 -9 -9 -9 -8 -8 -8 -9 -9 -9 -9 -9 -9 -9 -8 -8 -8 -9 -9 -9 -11 -12 -12 -13 -13 -13 -14 -15 -15
-7 -7 -7 -7 -8 -8 -8 -9 -9 -9 -9 -9 -9 -9 -9 -9 -9 -9 -8 -8 -8 -9 -9 -9 -8 -8 -9 -10 -10 -10 -11 -11 -12 -12 -13 -14 -15 -15
-6 -6 -6 -7 -8 -8 -8 -8 -8 -9 -9 -9 -9 -9 -9 -9 -9 -9 -9 -9 -9 -9 -9 -10 -9 -9 -9 -9 -9 -10 -10 -11 -12 -13 -13 -14 -15 -15
-6 -7 -7 -7 -7 -7 -8 -8 -8 -8 -9 -9 -9 -9 -9 -9 -9 -10 -9 -9 -9 -9 -9 -10 -10 -10 -9 -9 -10 -10 -11 -12 -13 -13 -13 -14 -15 -15
-7 -7 -7 -7 -7 -7 -8 -8 -8 -7 -8 -9 -9 -9 -8 -9 -10 -10 -10 -10 -10 -10 -10 -10 -10 -11 -10 -10 -11 -11 -12 -12 -13 -13 -14 -14 -15 -16
-7 -7 -7 -7 -8 -8 -7 -8 -8 -8 -8 -8 -9 -9 -9 -9 -10 -10 -10 -10 -10 -10 -11 -10 -10 -11 -11 -11 -11 -11 -12 -13 -13 -14 -14 -14 -15 -15
-8 -8 -8 -8 -8 -8 -8 -8 -8 -8 -9 -9 -9 -9 -9 -9 -10 -10 -10 -10 -10 -10 -10 -10 -11 -11 -11 -11 -11 -11 -12 -13 -13 -13 -14 -14 -14 -15
-7 -8 -8 -8 -8 -8 -8 -8 -8 -8 -9 -8 -8 -8 -8 -9 -9 -10 -10 -9 -9 -10 -10 -10 -11 -10 -11 -11 -11 -11 -12 -13 -13 -14 -14 -14 -14 -15
-7 -8 -8 -8 -8 -8 -8 -8 -8 -8 -9 -9 -9 -8 -9 -9 -9 -10 -9 -10 -9 -9 -10 -10 -10 -10 -11 -11 -11 -11 -12 -13 -13 -14 -14 -15 -15 -15
-7 -8 -8 -8 -8 -8 -8 -8 -8 -8 -8 -8 -7 -8 -9 -9 -9 -9 -9 -9 -9 -9 -10 -10 -10 -10 -11 -11 -11 -11 -12 -13 -13 -14 -14 -15 -15 -15
-7 -8 -8 -8 -8 -7 -7 -8 -8 -8 -8 -8 -8 -8 -8 -8 -9 -8 -9 -9 -9 -9 -10 -10 -10 -10 -11 -11 -11 -12 -12 -13 -13 -14 -14 -15 -15 -15
-8 -8 -8 -8 -8 -8 -8 -8 -8 -8 -8 -8 -9 -9 -9 -9 -9 -9 -9 -9 -9 -9 -9 -10 -10 -10 -10 -10 -11 -12 -13 -13 -13 -13 -14 -15 -15 -15
-7 -7 -7 -7 -8 -8 -8 -8 -7 -8 -7 -8 -8 -9 -9 -9 -9 -8 -9 -9 -9 -10 -9 -11 -10 -10 -10 -10 -10 -12 -13 -13 -13 -14 -14 -14 -15 -15
-6 -6 -7 -6 -7 -7 -7 -7 -7 -7 -8 -8 -9 -9 -10 -11 -6 -8 -9 -10 -10 -10 -10 -10 -11 -10 -11 -11 -11 -12 -13 -13 -13 -13 -14 -14 -15 -15
-8 -7 -7 -7 -7 -6 -6 -6 -6 -6 -7 -8 -8 -9 -10 -8 -8 -9 -9 -10 -10 -10 -10 -11 -10 -10 -10 -10 -11 -12 -12 -13 -13 -13 -14 -14 -15 -15
-7 -7 -7 -7 -6 -6 -6 -6 -6 -6 -6 -6 -8 -8 -9 -9 -9 -9 -9 -10 -10 -10 -11 -11 -10 -10 -10 -11 -11 -11 -11 -12 -13 -13 -14 -14 -15 -15
-7 -7 -7 -6 -6 -6 -6 -6 -5 -4 -5 -6 -6 -5 -7 -8 -8 -9 -9 -10 -11 -11 -10 -10 -11 -11 -10 -11 -11 -12 -12 -12 -13 -13 -14 -14 -14 -15
-7 -7 -7 -7 -6 -6 -5 -4 -4 -7 -6 -5 -6 -7 -7 -8 -8 -9 -10 -11 -10 -10 -10 -10 -11 -11 -11 -11 -11 -12 -12 -12 -13 -13 -13 -14 -14 -14

GFSNE_500_temp_033.txt.gz
Temp
-7 -7 -7 -7 -7 -7 -7 -7 -7 -7 -7 -7 -7 -7 -7 -8 -8 -8 -8 -8 -8 -7 -7 -7 -7 -7 -7 -7 -7 -7 -8 -8 -9 -10 -11 -12 -12 -12
-7 -7 -7 -7 -7 -7 -7 -7 -7 -7 -8 -7 -7 -8 -8 -8 -8 -8 -8 -8 -8 -8 -8 -8 -8 -8 -7 -7 -8 -8 -8 -8 -9 -10 -11 -12 -13 -13
-6 -7 -7 -7 -7 -8 -8 -9 -8 -8 -8 -8 -8 -8 -8 -8 -8 -8 -8 -9 -9 -9 -9 -8 -8 -8 -8 -8 -8 -8 -8 -9 -10 -11 -12 -12 -13 -13
-7 -7 -7 -7 -7 -8 -8 -9 -9 -9 -8 -8 -8 -8 -9 -9 -9 -9 -8 -9 -9 -9 -9 -9 -9 -8 -9 -8 -9 -9 -9 -9 -10 -11 -12 -12 -13 -13
-7 -7 -7 -7 -7 -8 -9 -9 -9 -9 -9 -9 -9 -9 -9 -9 -9 -9 -9 -9 -9 -9 -9 -9 -9 -9 -9 -9 -9 -9 -9 -9 -10 -11 -12 -12 -13 -13
-6 -7 -7 -8 -7 -7 -8 -8 -8 -9 -9 -9 -9 -9 -9 -9 -9 -9 -9 -9 -9 -9 -10 -10 -9 -10 -10 -10 -10 -10 -11 -11 -11 -12 -12 -12 -13 -13
-6 -6 -7 -7 -8 -8 -8 -8 -8 -8 -8 -9 -9 -9 -9 -9 -9 -9 -9 -8 -9 -9 -9 -10 -10 -10 -10 -11 -10 -10 -10 -11 -11 -12 -12 -12 -13 -13
-7 -7 -7 -7 -7 -7 -7 -7 -8 -8 -8 -8 -9 -9 -9 -9 -8 -9 -8 -9 -9 -9 -8 -9 -10 -10 -10 -11 -10 -11 -10 -11 -11 -11 -12 -13 -13 -13
-7 -7 -7 -7 -8 -8 -8 -7 -8 -8 -8 -8 -8 -8 -8 -8 -8 -8 -9 -9 -9 -10 -9 -10 -9 -10 -10 -10 -10 -10 -10 -11 -11 -12 -12 -13 -13 -13
-7 -7 -7 -8 -8 -8 -8 -8 -8 -8 -8 -8 -8 -8 -8 -8 -8 -9 -9 -9 -9 -10 -9 -10 -9 -10 -10 -10 -10 -10 -11 -11 -11 -12 -12 -13 -13 -13
-8 -8 -8 -8 -8 -8 -8 -8 -8 -8 -9 -9 -9 -9 -8 -8 -8 -9 -9 -9 -9 -10 -9 -9 -9 -9 -10 -11 -10 -11 -11 -12 -12 -12 -12 -13 -13 -14
-8 -8 -8 -8 -8 -8 -8 -8 -8 -8 -8 -8 -8 -8 -8 -9 -9 -9 -9 -9 -9 -9 -9 -9 -9 -9 -9 -11 -10 -11 -11 -12 -12 -12 -12 -13 -13 -13
-7 -8 -8 -8 -8 -8 -8 -8 -9 -8 -8 -8 -8 -8 -8 -8 -8 -8 -9 -9 -9 -9 -9 -9 -9 -9 -10 -11 -11 -11 -11 -11 -12 -12 -12 -12 -13 -13
-7 -7 -7 -8 -8 -8 -8 -8 -8 -8 -9 -9 -9 -8 -8 -9 -9 -10 -9 -9 -9 -9 -9 -8 -8 -8 -10 -10 -11 -10 -11 -11 -12 -12 -12 -12 -12 -13
-6 -6 -7 -8 -7 -7 -7 -8 -8 -9 -9 -8 -8 -8 -9 -9 -9 -9 -9 -9 -9 -9 -8 -9 -9 -9 -9 -10 -11 -10 -11 -11 -12 -12 -12 -12 -12 -13
-6 -6 -6 -6 -6 -7 -7 -7 -8 -7 -7 -7 -7 -7 -8 -8 -9 -9 -9 -10 -9 -8 -9 -8 -8 -9 -9 -9 -10 -10 -11 -11 -11 -11 -12 -12 -12 -13
-6 -6 -6 -6 -6 -7 -7 -7 -7 -8 -7 -7 -7 -8 -7 -7 -8 -9 -9 -9 -9 -7 -8 -8 -8 -9 -9 -10 -10 -10 -11 -11 -11 -12 -12 -13 -12 -13
-6 -6 -7 -6 -6 -6 -6 -7 -7 -7 -7 -7 -7 -7 -7 -7 -8 -8 -9 -9 -10 -8 -9 -8 -9 -8 -9 -9 -10 -10 -11 -11 -11 -12 -12 -13 -13 -13
-6 -6 -6 -6 -6 -6 -6 -6 -6 -6 -7 -6 -6 -7 -7 -7 -7 -6 -8 -9 -9 -9 -8 -8 -9 -10 -10 -9 -10 -10 -11 -11 -11 -11 -12 -13 -13 -13
-7 -7 -8 -7 -7 -7 -7 -6 -6 -6 -6 -5 -6 -6 -6 -7 -7 -6 -6 -9 -7 -8 -8 -10 -11 -11 -9 -9 -10 -11 -10 -11 -11 -12 -12 -13 -13 -13
-8 -8 -7 -7 -7 -7 -7 -7 -6 -6 -5 -6 -6 -6 -5 -5 -5 -5 -4 -7 -7 -7 -8 -9 -10 -10 -10 -10 -10 -10 -10 -11 -12 -12 -12 -12 -13 -13
-8 -8 -7 -7 -7 -7 -7 -7 -6 -6 -7 -6 -6 -5 -5 -6 -5 -6 -5 -5 -8 -8 -9 -9 -10 -12 -10 -10 -10 -10 -11 -11 -12 -12 -12 -12 -13 -13
-7 -7 -7 -7 -7 -7 -7 -7 -7 -6 -6 -6 -5 -4 -6 -8 -7 -7 -8 -8 -8 -8 -8 -10 -11 -11 -10 -10 -10 -10 -10 -11 -12 -12 -12 -12 -13 -13

GFSNE_500_temp_036.txt.gz
Temp
-7 -7 -7 -7 -7 -7 -8 -8 -8 -8 -8 -8 -8 -8 -8 -8 -8 -8 -8 -8 -9 -9 -9 -8 -9 -8 -8 -8 -8 -8 -8 -8 -8 -8 -9 -10 -10 -11
-7 -7 -7 -7 -7 -8 -8 -8 -8 -8 -8 -8 -8 -8 -8 -8 -9 -9 -9 -9 -9 -9 -9 -9 -9 -9 -8 -8 -9 -9 -9 -9 -9 -9 -10 -10 -11 -11
-7 -8 -7 -8 -8 -7 -8 -8 -8 -8 -8 -8 -8 -8 -8 -9 -9 -9 -9 -9 -9 -9 -9 -9 -9 -10 -9 -9 -9 -9 -9 -9 -9 -10 -10 -11 -11 -11
-7 -8 -8 -8 -8 -8 -8 -8 -9 -9 -9 -9 -9 -9 -9 -9 -9 -9 -9 -9 -10 -9 -9 -9 -10 -10 -10 -11 -10 -9 -10 -10 -10 -10 -11 -11 -11 -11
-7 -7 -8 -8 -8 -9 -9 -9 -9 -9 -9 -9 -9 -9 -9 -9 -9 -9 -10 -9 -9 -9 -9 -9 -9 -10 -10 -10 -10 -10 -10 -9 -10 -10 -11 -11 -11 -12
-7 -8 -8 -7 -7 -7 -8 -9 -9 -8 -8 -9 -9 -9 -9 -9 -9 -9 -9 -9 -9 -9 -9 -9 -10 -10 -11 -10 -10 -10 -10 -10 -10 -10 -11 -11 -12 -12
-7 -7 -7 -7 -8 -7 -7 -7 -7 -8 -8 -8 -9 -9 -9 -9 -8 -8 -8 -9 -9 -9 -9 -9 -10 -9 -9 -9 -9 -10 -11 -10 -10 -10 -10 -11 -11 -12
-7 -7 -8 -7 -7 -8 -7 -7 -7 -7 -8 -8 -8 -8 -8 -8 -8 -8 -8 -8 -10 -10 -10 -10 -9 -9 -9 -10 -9 -9 -10 -10 -10 -10 -10 -11 -12 -12
-7 -7 -7 -7 -8 -8 -8 -8 -8 -8 -8 -8 -8 -8 -8 -9 -9 -9 -9 -9 -9 -9 -9 -10 -10 -10 -9 -9 -9 -9 -10 -10 -10 -10 -11 -11 -12 -12
-7 -7 -8 -8 -8 -8 -8 -8 -8 -9 -9 -9 -8 -9 -8 -9 -9 -9 -9 -9 -9 -10 -9 -9 -9 -9 -8 -9 -9 -10 -10 -10 -10 -10 -11 -11 -12 -12
-7 -8 -8 -8 -9 -9 -9 -9 -8 -9 -9 -9 -9 -8 -9 -9 -9 -9 -9 -8 -8 -10 -9 -10 -9 -9 -9 -9 -9 -9 -10 -11 -10 -9 -11 -12 -12 -12
-7 -8 -8 -8 -9 -9 -9 -9 -9 -9 -9 -9 -9 -9 -9 -9 -9 -9 -9 -9 -9 -9 -9 -9 -9 -9 -9 -9 -9 -10 -10 -10 -10 -9 -11 -11 -11 -12
-7 -7 -7 -7 -8 -8 -8 -8 -8 -8 -8 -8 -9 -9 -9 -9 -9 -9 -9 -9 -9 -9 -9 -9 -8 -9 -8 -8 -10 -8 -9 -10 -10 -10 -10 -11 -11 -12
-6 -7 -7 -7 -7 -7 -7 -7 -7 -8 -8 -8 -8 -8 -8 -8 -9 -9 -9 -8 -8 -9 -9 -9 -9 -9 -8 -8 -9 -9 -9 -10 -10 -10 -10 -11 -11 -12
-6 -6 -6 -7 -6 -6 -6 -6 -6 -7 -7 -7 -6 -7 -7 -7 -7 -8 -8 -9 -9 -10 -10 -9 -8 -7 -8 -8 -9 -9 -9 -10 -9 -10 -10 -11 -11 -11
-6 -6 -6 -6 -6 -6 -6 -6 -6 -6 -6 -6 -7 -7 -7 -7 -7 -7 -7 -7 -8 -9 -9 -9 -9 -9 -8 -8 -8 -9 -9 -10 -9 -10 -10 -11 -11 -11
-5 -6 -6 -6 -6 -6 -6 -6 -7 -7 -7 -7 -7 -7 -7 -7 -7 -7 -5 -6 -7 -8 -8 -9 -9 -10 -9 -8 -8 -8 -9 -9 -9 -9 -10 -10 -10 -11
-5 -6 -6 -6 -6 -6 -6 -7 -7 -7 -7 -7 -7 -7 -7 -6 -6 -6 -6 -6 -6 -6 -6 -7 -9 -7 -9 -8 -8 -9 -9 -9 -10 -10 -10 -10 -10 -10
-5 -6 -6 -6 -6 -7 -6 -7 -6 -6 -7 -7 -7 -7 -7 -6 -6 -6 -6 -6 -6 -6 -6 -5 -8 -9 -9 -8 -9 -9 -10 -9 -10 -10 -11 -10 -10 -11
-6 -6 -6 -6 -7 -6 -6 -7 -7 -7 -7 -7 -6 -7 -6 -6 -6 -6 -6 -6 -5 -5 -5 -8 -6 -7 -6 -8 -10 -10 -11 -10 -10 -10 -11 -11 -11 -11
-6 -6 -7 -7 -7 -7 -7 -7 -7 -7 -7 -7 -7 -7 -7 -6 -6 -7 -7 -5 -4 -6 -7 -7 -6 -7 -7 -9 -9 -11 -11 -10 -10 -10 -11 -11 -11 -12
-6 -7 -7 -7 -7 -7 -7 -7 -7 -7 -7 -7 -7 -7 -7 -7 -7 -6 -5 -5 -3 -6 -8 -7 -8 -8 -8 -9 -10 -10 -11 -10 -10 -10 -11 -11 -12 -12
-7 -7 -7 -7 -7 -8 -8 -8 -7 -7 -8 -7 -7 -7 -7 -7 -7 -6 -7 -7 -8 -8 -8 -9 -9 -9 -9 -10 -10 -11 -10 -10 -11 -11 -11 -11 -12 -12

GFSNE_500_temp_042.txt.gz
Temp
-7 -8 -8 -8 -7 -8 -8 -8 -8 -8 -9 -9 -9 -9 -9 -9 -9 -9 -9 -9 -9 -9 -9 -10 -10 -10 -9 -9 -9 -10 -10 -9 -9 -10 -10 -9 -9 -10
-7 -8 -8 -8 -8 -8 -8 -8 -8 -8 -8 -9 -9 -9 -9 -9 -9 -9 -9 -9 -9 -9 -9 -9 -9 -10 -9 -9 -9 -9 -9 -9 -10 -9 -10 -10 -9 -10
-7 -8 -8 -8 -8 -8 -8 -8 -9 -8 -9 -9 -9 -9 -9 -9 -9 -9 -9 -9 -9 -9 -9 -9 -9 -9 -9 -9 -9 -8 -9 -9 -10 -10 -10 -10 -10 -10
-8 -8 -8 -8 -8 -8 -8 -8 -8 -8 -8 -8 -9 -9 -9 -9 -9 -9 -9 -9 -9 -9 -9 -9 -9 -9 -9 -9 -8 -9 -9 -9 -9 -9 -9 -10 -10 -10
-7 -8 -8 -8 -8 -7 -7 -7 -7 -8 -8 -9 -9 -8 -9 -9 -9 -9 -8 -8 -9 -9 -9 -9 -9 -9 -9 -9 -9 -8 -8 -8 -9 -9 -9 -10 -10 -10
-7 -7 -8 -8 -7 -7 -7 -7 -7 -8 -8 -8 -8 -9 -9 -9 -9 -9 -9 -9 -9 -9 -9 -9 -9 -9 -9 -9 -9 -9 -9 -8 -8 -9 -9 -9 -9 -10
-7 -7 -7 -7 -8 -8 -8 -8 -8 -8 -9 -9 -9 -9 -9 -9 -9 -8 -9 -8 -9 -9 -9 -9 -9 -9 -9 -9 -9 -8 -8 -8 -9 -9 -9 -9 -10 -10
-7 -7 -7 -7 -8 -8 -8 -8 -8 -8 -8 -8 -8 -8 -9 -9 -9 -9 -9 -9 -9 -9 -9 -9 -9 -9 -9 -9 -8 -8 -8 -9 -8 -8 -9 -9 -9 -10
-7 -7 -7 -7 -7 -7 -7 -7 -8 -8 -7 -7 -8 -8 -8 -9 -9 -9 -9 -9 -9 -9 -9 -9 -9 -9 -9 -9 -10 -9 -9 -8 -9 -8 -8 -9 -9 -10
-8 -8 -8 -8 -8 -8 -8 -8 -8 -8 -8 -8 -8 -9 -9 -9 -9 -9 -9 -8 -8 -9 -8 -8 -9 -8 -9 -9 -10 -9 -9 -9 -9 -9 -9 -9 -10 -10
-8 -8 -8 -8 -8 -8 -8 -8 -9 -9 -9 -8 -8 -8 -9 -9 -9 -9 -9 -8 -8 -8 -9 -8 -8 -7 -7 -7 -8 -8 -8 -8 -8 -8 -9 -9 -10 -9
-8 -8 -8 -8 -8 -8 -7 -8 -9 -9 -8 -8 -8 -8 -8 -9 -9 -8 -8 -8 -7 -6 -8 -7 -7 -8 -6 -7 -7 -7 -8 -8 -8 -8 -8 -8 -9 -9
-8 -8 -8 -8 -8 -8 -8 -8 -8 -9 -8 -8 -8 -8 -8 -8 -8 -7 -8 -8 -8 -7 -8 -7 -7 -7 -6 -6 -6 -7 -7 -8 -8 -8 -9 -9 -9 -9
-8 -8 -8 -8 -8 -8 -8 -8 -8 -8 -8 -8 -8 -8 -8 -7 -7 -7 -7 -7 -7 -7 -7 -7 -6 -7 -6 -6 -6 -5 -6 -7 -8 -8 -7 -9 -9 -8
-8 -8 -8 -8 -8 -8 -8 -8 -8 -8 -8 -8 -8 -8 -7 -7 -7 -7 -7 -7 -7 -6 -6 -7 -7 -6 -6 -5 -6 -5 -5 -6 -7 -8 -8 -8 -8 -9
-8 -8 -8 -8 -8 -8 -8 -8 -8 -8 -8 -8 -8 -7 -7 -7 -7 -7 -7 -7 -6 -6 -6 -6 -6 -6 -6 -5 -5 -4 -4 -4 -6 -6 -8 -8 -8 -8
-8 -8 -8 -8 -8 -8 -8 -8 -7 -7 -7 -8 -7 -7 -7 -7 -7 -7 -7 -7 -6 -5 -5 -6 -6 -6 -6 -5 -4 -4 -4 -4 -4 -6 -6 -8 -8 -8
-8 -8 -8 -8 -8 -7 -7 -7 -7 -7 -7 -7 -7 -7 -7 -7 -7 -7 -7 -6 -6 -6 -5 -6 -6 -5 -5 -5 -5 -4 -5 -5 -5 -8 -7 -7 -8 -8
-7 -7 -7 -7 -7 -6 -7 -7 -7 -7 -7 -7 -7 -7 -7 -7 -7 -7 -7 -6 -6 -6 -6 -6 -6 -6 -5 -5 -5 -5 -5 -5 -7 -7 -7 -8 -8 -8
-6 -6 -6 -6 -6 -6 -7 -7 -7 -7 -7 -7 -7 -7 -7 -7 -7 -7 -7 -7 -7 -6 -6 -6 -7 -7 -6 -6 -5 -5 -5 -5 -7 -8 -9 -9 -8 -8
-6 -6 -6 -6 -6 -7 -7 -7 -7 -7 -8 -8 -8 -8 -7 -7 -8 -7 -7 -7 -7 -7 -7 -6 -6 -6 -7 -6 -5 -5 -6 -7 -7 -9 -9 -9 -9 -10
-6 -6 -6 -6 -7 -7 -7 -7 -7 -7 -8 -8 -8 -8 -7 -7 -7 -8 -8 -7 -8 -8 -7 -7 -7 -7 -7 -6 -6 -7 -7 -8 -10 -10 -10 -10 -10 -11
-6 -6 -7 -7 -7 -7 -7 -7 -8 -8 -8 -7 -7 -8 -8 -8 -8 -8 -8 -8 -9 -8 -8 -8 -7 -8 -7 -7 -8 -8 -8 -8 -9 -10 -10 -10 -10 -13

GFSNE_500_temp_045.txt.gz
Temp
-7 -7 -7 -7 -7 -8 -8 -8 -8 -8 -8 -8 -8 -8 -9 -8 -8 -8 -8 -8 -8 -8 -9 -9 -9 -9 -9 -8 -9 -8 -9 -9 -9 -9 -9 -9 -9 -10
-7 -8 -7 -7 -7 -8 -8 -8 -8 -8 -8 -8 -8 -8 -8 -8 -8 -8 -8 -9 -9 -9 -9 -9 -9 -8 -8 -8 -8 -8 -8 -8 -9 -9 -9 -9 -9 -9
-7 -8 -8 -7 -7 -8 -8 -8 -8 -8 -8 -8 -8 -8 -8 -8 -8 -8 -9 -9 -9 -9 -9 -9 -9 -9 -9 -9 -8 -8 -8 -8 -7 -8 -9 -9 -9 -8
-8 -8 -7 -7 -8 -8 -8 -8 -8 -8 -8 -8 -8 -8 -8 -8 -8 -8 -8 -8 -9 -8 -8 -8 -9 -9 -9 -9 -9 -9 -9 -8 -9 -9 -9 -8 -9 -9
-8 -8 -7 -7 -7 -7 -7 -7 -7 -8 -8 -8 -8 -8 -9 -8 -8 -8 -8 -8 -8 -8 -9 -9 -9 -9 -9 -9 -9 -9 -9 -9 -9 -9 -9 -8 -9 -9
-7 -7 -7 -7 -7 -7 -7 -7 -7 -8 -8 -8 -8 -9 -9 -8 -8 -8 -8 -9 -9 -9 -9 -9 -9 -9 -9 -9 -9 -9 -9 -9 -9 -8 -9 -9 -9 -9
-7 -7 -7 -7 -7 -7 -7 -7 -7 -7 -7 -7 -8 -8 -9 -9 -9 -9 -9 -9 -9 -9 -9 -9 -8 -9 -9 -9 -8 -8 -8 -8 -8 -8 -8 -8 -9 -9
-6 -7 -7 -7 -7 -7 -7 -7 -7 -8 -8 -8 -8 -8 -8 -8 -8 -9 -8 -8 -8 -9 -8 -8 -8 -8 -8 -8 -8 -8 -8 -8 -7 -7 -8 -8 -9 -9
-7 -7 -7 -7 -8 -8 -8 -8 -8 -7 -7 -8 -8 -8 -8 -8 -8 -8 -9 -9 -8 -8 -8 -7 -8 -8 -8 -8 -8 -8 -7 -7 -7 -7 -7 -8 -8 -9
-7 -7 -7 -8 -8 -8 -8 -8 -8 -7 -7 -7 -7 -8 -9 -9 -9 -8 -8 -8 -8 -7 -7 -7 -8 -6 -6 -7 -8 -8 -8 -8 -8 -7 -7 -8 -8 -8
-7 -8 -8 -8 -8 -8 -7 -7 -8 -8 -7 -8 -8 -8 -8 -9 -9 -8 -8 -8 -7 -7 -7 -6 -7 -6 -5 -5 -5 -6 -6 -8 -8 -7 -7 -8 -8 -8
-8 -8 -8 -8 -8 -8 -7 -7 -8 -8 -8 -8 -8 -9 -9 -9 -9 -8 -8 -7 -7 -7 -7 -6 -6 -6 -5 -6 -5 -5 -5 -6 -7 -7 -8 -8 -7 -7
-8 -8 -8 -8 -8 -8 -8 -8 -8 -8 -8 -8 -8 -9 -8 -8 -8 -8 -7 -7 -7 -7 -7 -7 -6 -6 -5 -4 -5 -5 -4 -5 -5 -6 -6 -7 -7 -8
-8 -8 -8 -8 -8 -8 -8 -8 -8 -8 -8 -8 -8 -8 -8 -8 -7 -7 -7 -7 -7 -7 -7 -7 -6 -6 -6 -5 -5 -5 -5 -5 -5 -5 -7 -7 -7 -7
-8 -8 -8 -8 -8 -8 -8 -8 -8 -8 -8 -7 -8 -8 -8 -7 -7 -7 -7 -7 -7 -7 -7 -7 -6 -6 -6 -5 -5 -5 -5 -5 -5 -4 -6 -6 -6 -7
-8 -8 -8 -8 -8 -8 -8 -8 -8 -8 -7 -8 -7 -7 -7 -7 -7 -7 -7 -7 -7 -7 -7 -7 -6 -6 -5 -5 -5 -5 -5 -5 -4 -4 -6 -6 -5 -6
-8 -8 -8 -8 -8 -8 -8 -8 -8 -7 -7 -7 -7 -7 -7 -7 -7 -7 -7 -7 -7 -7 -7 -6 -6 -6 -7 -6 -6 -5 -5 -5 -5 -6 -6 -5 -5 -7
-8 -8 -8 -8 -8 -8 -8 -7 -7 -7 -7 -7 -6 -6 -7 -7 -7 -7 -7 -7 -7 -7 -7 -6 -6 -6 -7 -7 -7 -6 -5 -6 -6 -6 -5 -5 -7 -7
-8 -8 -8 -8 -8 -8 -7 -7 -6 -6 -6 -6 -6 -7 -7 -7 -7 -7 -7 -7 -7 -7 -6 -6 -6 -7 -7 -7 -7 -6 -6 -6 -6 -6 -5 -5 -7 -8
-8 -7 -7 -7 -7 -7 -7 -7 -6 -6 -6 -7 -7 -7 -7 -7 -7 -7 -7 -7 -7 -7 -7 -7 -7 -7 -8 -8 -7 -7 -6 -6 -6 -6 -5 -6 -8 -8
-7 -7 -7 -7 -7 -7 -7 -7 -7 -7 -7 -7 -7 -7 -7 -8 -8 -7 -7 -7 -7 -7 -7 -7 -7 -7 -7 -7 -7 -6 -6 -7 -6 -5 -6 -6 -7 -8
-7 -7 -7 -7 -7 -7 -7 -7 -7 -7 -7 -7 -7 -8 -8 -8 -8 -8 -7 -7 -7 -7 -7 -8 -8 -8 -7 -7 -7 -7 -7 -7 -6 -7 -7 -7 -9 -11
-7 -7 -7 -7 -7 -7 -7 -7 -7 -7 -7 -8 -8 -8 -8 -8 -8 -8 -7 -7 -7 -7 -7 -8 -8 -8 -8 -8 -8 -7 -7 -8 -7 -8 -8 -9 -10 -10

GFSNE_500_temp_048.txt.gz
Temp
-6 -6 -6 -6 -7 -7 -7 -7 -8 -8 -8 -7 -8 -8 -8 -8 -8 -8 -8 -8 -8 -9 -8 -9 -9 -9 -9 -9 -9 -8 -9 -8 -8 -8 -8 -9 -8 -9
-6 -6 -6 -6 -7 -7 -7 -7 -8 -8 -7 -8 -8 -8 -8 -8 -8 -8 -8 -9 -9 -8 -9 -9 -9 -9 -9 -9 -9 -9 -9 -9 -9 -8 -8 -9 -9 -9
-7 -7 -6 -6 -6 -7 -7 -7 -7 -7 -7 -8 -8 -8 -8 -8 -8 -8 -8 -8 -8 -8 -8 -8 -8 -9 -9 -9 -9 -9 -9 -9 -9 -8 -8 -8 -9 -8
-7 -7 -7 -6 -7 -7 -7 -7 -7 -7 -7 -7 -8 -8 -8 -8 -8 -8 -8 -8 -8 -8 -8 -8 -8 -8 -8 -8 -8 -9 -8 -8 -8 -8 -8 -8 -8 -9
-7 -7 -7 -7 -7 -7 -7 -7 -7 -7 -7 -7 -7 -7 -7 -7 -7 -7 -7 -8 -8 -8 -8 -8 -9 -9 -8 -8 -8 -8 -8 -8 -8 -7 -7 -8 -8 -8
-7 -7 -7 -7 -7 -7 -7 -7 -7 -7 -7 -7 -7 -7 -7 -7 -7 -8 -8 -8 -8 -8 -8 -8 -8 -8 -8 -8 -7 -8 -8 -8 -7 -7 -7 -7 -7 -8
-6 -6 -6 -6 -6 -6 -6 -6 -6 -7 -7 -7 -7 -8 -8 -8 -8 -8 -8 -8 -8 -8 -7 -8 -7 -8 -7 -7 -8 -8 -7 -6 -6 -6 -6 -6 -6 -7
-5 -6 -6 -6 -7 -6 -6 -7 -7 -7 -7 -7 -7 -8 -8 -8 -8 -8 -8 -8 -8 -8 -7 -7 -7 -7 -7 -7 -7 -7 -7 -7 -6 -6 -6 -6 -6 -6
-6 -6 -6 -7 -7 -7 -7 -7 -7 -7 -7 -7 -8 -8 -8 -8 -8 -8 -8 -8 -7 -8 -7 -7 -7 -7 -7 -6 -7 -6 -7 -7 -7 -6 -6 -6 -6 -6
-6 -6 -7 -7 -7 -7 -7 -7 -7 -7 -7 -8 -8 -8 -8 -8 -8 -8 -8 -7 -7 -7 -7 -7 -7 -6 -6 -6 -6 -6 -6 -6 -6 -6 -6 -6 -6 -7
-6 -7 -7 -7 -7 -8 -8 -8 -8 -7 -7 -7 -7 -8 -8 -8 -8 -8 -8 -7 -7 -7 -7 -6 -6 -6 -6 -6 -6 -6 -5 -5 -6 -7 -7 -5 -5 -5
-7 -7 -7 -7 -8 -8 -7 -7 -8 -8 -7 -7 -7 -7 -8 -8 -8 -8 -8 -8 -7 -6 -7 -6 -6 -6 -5 -5 -5 -5 -5 -5 -5 -5 -6 -6 -6 -6
-8 -8 -8 -8 -8 -7 -7 -7 -8 -8 -8 -8 -8 -8 -8 -8 -8 -8 -8 -7 -7 -6 -6 -6 -6 -5 -5 -4 -5 -5 -5 -6 -5 -5 -5 -6 -6 -6
-8 -8 -8 -8 -8 -8 -8 -8 -8 -8 -8 -8 -8 -8 -8 -8 -8 -8 -7 -7 -7 -6 -7 -6 -6 -6 -5 -4 -4 -5 -6 -6 -6 -6 -6 -5 -5 -6
-8 -8 -8 -8 -8 -8 -8 -8 -8 -8 -8 -8 -8 -8 -8 -7 -7 -7 -7 -6 -6 -6 -6 -6 -6 -5 -5 -5 -4 -4 -4 -5 -6 -6 -5 -4 -5 -5
-8 -8 -8 -8 -8 -8 -8 -8 -8 -8 -8 -8 -8 -8 -7 -7 -6 -6 -6 -6 -6 -7 -6 -6 -6 -6 -5 -5 -5 -5 -5 -5 -5 -6 -5 -5 -4 -5
-8 -8 -8 -8 -8 -8 -8 -8 -8 -8 -8 -8 -7 -7 -7 -6 -6 -6 -6 -7 -7 -7 -7 -7 -7 -7 -6 -6 -5 -6 -6 -6 -6 -6 -5 -5 -5 -5
-8 -8 -8 -8 -8 -8 -8 -8 -7 -8 -7 -7 -7 -7 -6 -6 -6 -7 -7 -7 -7 -7 -7 -7 -6 -7 -7 -6 -6 -6 -7 -6 -6 -6 -6 -6 -5 -5
-8 -8 -8 -8 -7 -7 -7 -8 -7 -7 -7 -7 -7 -6 -6 -7 -7 -7 -7 -7 -7 -7 -7 -7 -6 -6 -6 -6 -6 -6 -6 -7 -6 -5 -6 -6 -5 -6
-7 -8 -8 -7 -8 -8 -8 -7 -7 -7 -7 -7 -7 -7 -7 -7 -7 -7 -7 -7 -7 -7 -7 -7 -7 -7 -7 -7 -6 -6 -6 -7 -6 -6 -6 -6 -6 -6
-7 -8 -8 -8 -7 -7 -7 -7 -7 -7 -7 -7 -7 -7 -7 -7 -7 -7 -7 -7 -7 -7 -7 -7 -7 -7 -7 -6 -6 -6 -7 -7 -6 -6 -6 -6 -6 -6
-7 -7 -7 -7 -7 -7 -7 -7 -7 -7 -7 -7 -7 -7 -7 -7 -7 -7 -7 -7 -7 -7 -7 -7 -7 -7 -7 -7 -6 -7 -7 -7 -7 -7 -6 -6 -6 -7
-7 -7 -7 -7 -7 -7 -7 -7 -7 -7 -7 -7 -7 -7 -7 -7 -7 -7 -7 -7 -7 -7 -7 -8 -7 -7 -7 -7 -6 -7 -8 -8 -7 -7 -7 -7 -7 -8